C/2016 A1 ( PanSTARRS )

Japanese version
Home page
Updated on July 7, 2017

---------------------------------------------------------------------

* Profile

Discovery Date January 1, 2016
Magnitude 19.3 mag
Discoverer Pan-STARRS 1 telescope (Haleakala)

* Pictures

* Orbital Elements

Epoch 2017 Nov. 23.0 TT = JDT 2458080.5
T 2017 Nov. 23.36305 TT                                 MPCW
q   5.3278223            (2000.0)            P               Q
z  -0.0003800      Peri.   10.31920     -0.53514310     +0.51119934
 +/-0.0000016      Node   128.17455     +0.70123597     -0.17511136
e   1.0020247      Incl.  121.18570     +0.47105199     +0.84143404
From 539 observations 2016 Jan. 1-2017 Mar. 6, mean residual 0".5.

* Finding Charts

* Magnitudes Graph

        m1 = 5.5 + 5 log d + 10.0 log r

---------------------------------------------------------------------

The orbital elements are published on M.P.E.C. 2017-E59.
The charts are made with StellaNavigator Ver.10 (AstroArts).
The magnitudes graphs are made with Comet for Windows.

---------------------------------------------------------------------

Copyright(C) Seiichi Yoshida (comet@aerith.net). All rights reserved.